Skip Page Navigation
NASA JPL Caltech
NASA Logo - Jet Propulsion Laboratory + View the NASA Portal
+ Near-Earth Object (NEO) Program
Search JPL
JPL Home Earth Solar System Stars & Galaxies Technology
JPL Solar System Dynamics
BODIES ORBITS EPHEMERIDES TOOLS PHYSICAL DATA DISCOVERY FAQ SITE MAP
JPL Small-Body Database Browser
Search: [ help ]  
15710 Bocklin (1989 AV6)
Classification: Main-belt Asteroid          SPK-ID: 2015710
Ephemeris | Orbit Diagram | Orbital Elements | Physical Parameters | Discovery Circumstances ]

[ show orbit diagram ]
Orbital Elements at Epoch 2457600.5 (2016-Jul-31.0) TDB
Reference: JPL 18 (heliocentric ecliptic J2000)
 Element Value Uncertainty (1-sigma)   Units 
e .1876644572561395 4.5216e-08  
a 2.242891859596612 1.2655e-08 au
q 1.821980776081201 1.0087e-07 au
i 6.998685866886574 5.0065e-06 deg
node 116.2905730209482 4.0232e-05 deg
peri 172.8284229628183 4.4241e-05 deg
M 277.7785914563515 2.2357e-05 deg
tp 2457880.716265347985
(2017-May-07.21626535)
7.7456e-05 JED
period 1226.904979032585
3.36
1.0384e-05
2.843e-08
d
yr
n .2934212560485818 2.4833e-09 deg/d
Q 2.663802943112024 1.503e-08 au
  Orbit Determination Parameters
   # obs. used (total)      1500  
   data-arc span      12018 days (32.90 yr)  
   first obs. used      1983-05-06  
   last obs. used      2016-03-31  
   planetary ephem.      DE431  
   SB-pert. ephem.      SB431-BIG16  
   condition code      0  
   fit RMS      .48133  
   data source      ORB  
   producer      Otto Matic  
   solution date      2016-Apr-25 13:22:59  

Additional Information
 Earth MOID = .805639 au 
 Jupiter MOID = 2.50426 au 
 T_jup = 3.600 
[ show covariance matrix ]

Ephemeris | Orbit Diagram | Orbital Elements | Physical Parameters | Discovery Circumstances ]

Physical Parameter Table
Parameter Symbol Value Units Sigma Reference Notes
absolute magnitude H 13.7 mag n/a MPO319280  

15710 Böcklin           Discovered 1989 Jan. 11 by F. Borngen at Tautenburg.
Swiss painter Arnold Böcklin (1827-1901) created landscapes and figures in a richly colored monumental-pathetic style. Frequently, his subjects are from classical mythology and are animated by a grand imagination.
NOTE: some special characters may not display properly (any characters within {} are an attempt to place the proper accent above a character)
Reference: 20001013/MPCPages.arcLast Updated: 2013-03-29

Alternate Designations
 1989 AV6 = 1998 UJ6 
Ephemeris | Orbit Diagram | Orbital Elements | Physical Parameters | Discovery Circumstances ]
ABOUT SSD CREDITS/AWARDS PRIVACY/COPYRIGHT GLOSSARY LINKS
FirstGov 2016-May-01 13:40 UT
(server date/time)  
NASA Home Page
Site Manager:   Ryan S. Park
Webmaster  Alan B. Chamberlin